Regional Weather Roundup
Issued by NWS

Home | Current Version | Previous Version | Text Only | Print | Product List | Glossary Off
Versions: 1 2 3 4 5 6 7 8 9 10 11 12 13 14 15 16 17 18 19 20 21 22 23 24 25 26 27 28 29 30 31 32 33 34 35 36 37 38 39 40 41 42 43 44 45 46 47 48 49 50

000
ASUS45 KTFX 220004
RWRMT
MONTANA HOURLY WEATHER ROUNDUP
NATIONAL WEATHER SERVICE GREAT FALLS MT
604 PM MDT SUN SEP 21 2014

NOTE: "FAIR" INDICATES FEW OR NO CLOUDS BELOW 12000 FEET WITH NO
SIGNIFICANT WEATHER AND/OR OBSTRUCTIONS TO VISIBILITY.

* THESE STATIONS ARE NOT UNDER NWS QUALITY CONTROL. THEY DO NOT
   REPORT WEATHER SUCH AS PRECIPITATION OR FOG.

MTZ001>007-043-220100-
WEST OF THE DIVIDE
CITY           SKY/WX    TMP DP  RH WIND       PRES   REMARKS
KALISPELL      CLEAR     84  43  24 NE3       29.96F
MISSOULA       PTCLDY    86  37  17 W5        29.95F
BUTTE          MOCLDY    75  39  27 SE13      30.14F
MULLAN PASS    PTCLDY    73  37  27 CALM      30.14F
* ESSEX        N/A       76  45  33 N/A        N/A
* LINCOLN      N/A       81  37  21 NE9        N/A
* LOOKOUT PASS N/A       76  44  32 SW1        N/A
* POLSON       N/A       78  38  24 N2         N/A
* RONAN APT    CLEAR     81  43  26 N6         N/A
* SEELEY LAKE  N/A       85  35  17 W4G11      N/A
* THOMP F APT  PTCLDY    69  38  32 S7         N/A
$$

MTZ008-052>055-220100-
SOUTHWEST MONTANA
CITY           SKY/WX    TMP DP  RH WIND       PRES   REMARKS
BOZEMAN        MOCLDY    73  46  38 SE3       30.11S
DILLON         MOCLDY    73  41  32 NE7       30.11F
W YELLOWSTONE  CLOUDY    70  37  30 S3        30.23S
* THREE FORKS  MOCLDY    75  55  50 N/A        N/A
* BOULDER HILL N/A       71  39  31 SW11       N/A
* MONIDA PASS  N/A       66  39  37 SE8        N/A
* RAYNOLDS PAS N/A       69  55  61 SW9        N/A
* WHITEHALL    N/A       75  45  34 SE6G11     N/A
* WISE RIVER   N/A       74  36  25 SE12G19    N/A
$$

MTZ009>010-012-014-046-048-049-054-220100-
EAST SLOPES AND CENTRAL MONTANA
CITY           SKY/WX    TMP DP  RH WIND       PRES   REMARKS
CUT BANK       CLEAR     75  39  27 SE14      30.05F
GREAT FALLS    CLEAR     75  46  36 NE10      30.05F
HELENA         PTCLDY    79  45  30 NW7       30.04F
MALMSTROM AFB  CLEAR     75  48  39 NE8       30.06F
* CONRAD       CLEAR     77  45  32 E10G15     N/A
* EAST GLACIER N/A       72  45  38 S8         N/A
* MONARCH      N/A       70  42  36 NE10G16    N/A
* PENDROY      N/A       74  45  36 S13        N/A
* ROGERS PASS  N/A       63  44  50 W2         N/A
* SAINT MARY   N/A       82  46  28 SW4G15     N/A
* SWEET GRASS  N/A       75  41  30 S20G25     N/A
$$

MTZ011-013-016-021-035-040-045-047-050-051-220100-
NORTH CENTRAL MONTANA
CITY           SKY/WX    TMP DP  RH WIND       PRES   REMARKS
HAVRE          CLEAR     79  46  31 E13       30.04F
LEWISTOWN      CLEAR     73  45  37 SE13      30.12F
* CHESTER      N/A       75  39  27 SE9G15     N/A
* DENTON       N/A       75  41  30 S18G23     N/A
* GEYSER       N/A       73  42  33 E10G19     N/A
* JUDITH GAP   N/A       69  44  41 SE15G23    N/A
* LOMA         N/A       79  46  31 E13        N/A
$$

MTZ017>020-022>027-061-062-220100-
NORTHEAST MONTANA
CITY           SKY/WX    TMP DP  RH WIND       PRES   REMARKS
GLASGOW        CLEAR     73  37  27 SE9       30.14F
JORDAN         CLEAR     75  43  32 SE7       30.13F
SIDNEY         CLEAR     73  37  27 S7        30.19F
WOLF POINT     CLEAR     75  39  27 CALM      30.15F
* BEAVER HILL  N/A       71  31  23 SW6        N/A
* CIRCLE       N/A       75  41  30 SE2        N/A
* LINDSAY DVD  N/A       70  35  28 S6G11      N/A
$$

MTZ028>042-056>058-220100-
SOUTHCENTRAL AND SOUTHEAST MONTANA
CITY           SKY/WX    TMP DP  RH WIND       PRES   REMARKS
BAKER          CLEAR     72  36  27 SE7       30.22F
BILLINGS       PTCLDY    75  43  32 E10       30.13F
LIVINGSTON     MOCLDY    70  46  42 E13       30.14F
MILES CITY     CLEAR     75  37  25 SE9       30.15F
* LAUREL APT   PTCLDY    77  43  30 NE8        N/A
* ROUNDUP APT  PTCLDY    75  43  32 E5         N/A
* ALZADA       N/A       72  35  26 E8         N/A
* HYSHAM       N/A       75  41  30 E9G15      N/A
* LAME DEER    N/A       70  42  36 E8G13      N/A
* REED POINT   N/A       74  46  37 E6         N/A
* ROSCOE HILL  N/A       71  36  28 E8G16      N/A
$$

REGIONAL REPORTS...DAKOTAS
CITY           SKY/WX    TMP DP  RH WIND       PRES   REMARKS
WILLISTON      CLEAR     72  34  25 S3        30.18F
DICKINSON      CLEAR     70  37  30 NE3       30.21F
BEACH          N/A       68  37  32 SE6       30.22S
CROSBY         CLEAR     68  36  31 SW7       30.18F
TIOGA          CLEAR     68  34  28 SW6       30.22F
WATFORD CITY   CLEAR     72  32  23 SW6       30.17F
BISMARCK       CLEAR     72  43  35 CALM      30.22S
GRAND FORKS    FAIR      64  48  56 E5        30.19R
FARGO          CLEAR     63  52  68 E7        30.20S
BUFFALO SD     CLEAR     70  36  29 E7        30.17F
RAPID CITY     CLEAR     70  39  32 SE9       30.26R
$$

REGIONAL REPORTS...WYOMING/IDAHO/WASHINGTON
CITY           SKY/WX    TMP DP  RH WIND       PRES   REMARKS
GILLETTE       PTCLDY    73  41  32 SE12      30.23S
SHERIDAN       PTCLDY    75  43  32 SE10      30.16F
CODY           PTCLDY   N/A N/A N/A N/A        N/A
YELLOWSTONE LA CLOUDY    61  46  58 CALM      30.33S
SALMON         MOCLDY    79  48  34 CALM      29.97F
MULLAN PASS    PTCLDY    73  37  27 CALM      30.14S
SAND POINT     CLEAR     82  46  28 N3        29.90F
SPOKANE        FAIR      88  37  16 NW3       29.91F

$$



USA.gov is the U.S. government's official web portal to all federal, state and local government web resources and services.